Location: Piolenc
(44.1794°N, 4.7641°E)
Time: 03:32:51
(UTC+00:00)

CENTAUR R/B - Pass Details

Date: 27 January 2021
Orbit: 742 x 1446 km, 63.5° (Epoch: 25 February)

Event Time Altitude Azimuth Distance (km) Brightness Sun altitude
Exits shadow 05:17:13 - 212° (SSW) 3,232 5.0 -19.1°
Reaches altitude 10° 05:19:11 10° 211° (SSW) 2,487 4.4 -18.8°
Maximum altitude 05:24:57 82° 125° (SE) 976 2.5 -17.8°
Drops below altitude 10° 05:31:54 10° 38° (NE) 2,970 5.4 -16.5°
Sets 05:34:50 0° 38° (NE) 4,043 6.1 -16.0°
